TimeEST,TemperatureF,Dew PointF,Humidity,Sea Level PressureIn,VisibilityMPH,Wind Direction,Wind SpeedMPH,Gust SpeedMPH,PrecipitationIn,Events,Conditions,WindDirDegrees,DateUTC
12:47 AM,28.4,24.8,86,30.22,10.0,NW,8.1,-,N/A,,Overcast,320,2013-03-08 05:47:00
12:51 AM,28.9,24.1,82,30.32,10.0,NW,8.1,-,N/A,,Overcast,310,2013-03-08 05:51:00
1:01 AM,28.4,24.8,86,30.22,10.0,NNW,9.2,-,N/A,,Overcast,330,2013-03-08 06:01:00
1:51 AM,28.9,24.1,82,30.33,10.0,NW,9.2,-,N/A,,Overcast,310,2013-03-08 06:51:00
2:51 AM,28.9,24.1,82,30.30,10.0,NW,8.1,-,N/A,,Overcast,310,2013-03-08 07:51:00
3:03 AM,28.4,24.8,86,30.21,10.0,WNW,8.1,-,N/A,,Overcast,300,2013-03-08 08:03:00
3:51 AM,28.0,24.1,85,30.31,10.0,NNW,8.1,-,N/A,,Overcast,330,2013-03-08 08:51:00
4:02 AM,28.4,24.8,86,30.21,10.0,NW,9.2,-,N/A,,Overcast,310,2013-03-08 09:02:00
4:51 AM,28.0,24.1,85,30.32,10.0,NW,9.2,-,N/A,,Overcast,320,2013-03-08 09:51:00
5:51 AM,28.0,24.1,85,30.34,10.0,NNW,8.1,-,N/A,,Overcast,330,2013-03-08 10:51:00
6:07 AM,28.4,24.8,86,30.24,10.0,NNW,10.4,-,N/A,,Overcast,330,2013-03-08 11:07:00
6:51 AM,28.0,23.0,81,30.36,10.0,North,10.4,-,N/A,,Overcast,350,2013-03-08 11:51:00
7:07 AM,28.4,21.2,74,30.27,10.0,North,9.2,18.4,N/A,,Overcast,350,2013-03-08 12:07:00
7:51 AM,28.0,23.0,81,30.39,10.0,NNW,12.7,17.3,N/A,,Overcast,340,2013-03-08 12:51:00
8:38 AM,28.4,21.2,74,30.31,10.0,NNW,11.5,-,N/A,,Overcast,340,2013-03-08 13:38:00
8:51 AM,28.0,21.9,78,30.41,10.0,North,9.2,-,N/A,,Overcast,350,2013-03-08 13:51:00
9:51 AM,28.9,21.0,72,30.42,10.0,NNW,11.5,-,N/A,,Overcast,340,2013-03-08 14:51:00
10:51 AM,30.9,21.0,67,30.42,10.0,North,11.5,-,N/A,,Mostly Cloudy,360,2013-03-08 15:51:00
11:51 AM,33.1,21.0,61,30.40,10.0,North,9.2,-,N/A,,Mostly Cloudy,10,2013-03-08 16:51:00
12:14 PM,35.6,21.2,56,30.30,10.0,North,9.2,-,N/A,,Scattered Clouds,10,2013-03-08 17:14:00
12:51 PM,36.0,23.0,59,30.38,10.0,NNE,9.2,-,N/A,,Mostly Cloudy,20,2013-03-08 17:51:00
1:51 PM,37.9,24.1,57,30.35,10.0,NNW,13.8,24.2,N/A,,Scattered Clouds,340,2013-03-08 18:51:00
2:51 PM,39.9,23.0,51,30.34,10.0,NW,15.0,-,N/A,,Clear,310,2013-03-08 19:51:00
3:51 PM,41.0,23.0,49,30.35,10.0,NNW,13.8,-,N/A,,Clear,330,2013-03-08 20:51:00
4:51 PM,41.0,21.9,47,30.35,10.0,NNW,12.7,-,N/A,,Clear,330,2013-03-08 21:51:00
5:51 PM,39.0,21.9,50,30.37,10.0,NW,11.5,-,N/A,,Clear,310,2013-03-08 22:51:00
6:51 PM,36.0,21.9,57,30.38,10.0,NNW,5.8,-,N/A,,Clear,330,2013-03-08 23:51:00
7:51 PM,35.1,21.0,57,30.38,10.0,North,3.5,-,N/A,,Clear,350,2013-03-09 00:51:00
8:51 PM,34.0,21.0,59,30.39,10.0,Calm,Calm,-,N/A,,Clear,0,2013-03-09 01:51:00
9:51 PM,30.0,21.0,69,30.41,10.0,Calm,Calm,-,N/A,,Clear,0,2013-03-09 02:51:00
10:51 PM,30.0,21.0,69,30.41,10.0,West,3.5,-,N/A,,Clear,260,2013-03-09 03:51:00
11:51 PM,28.0,21.0,75,30.41,10.0,Calm,Calm,-,N/A,,Clear,0,2013-03-09 04:51:00